Location: Frydek-Mistek
(49.6830°N, 18.3330°E)
Time: 23:39:26
(UTC+01:00)

Courier 1B Rocket - All Passes

Search period start: 20 November 2014 00:00
Search period end: 30 November 2014 00:00
Orbit: 920 x 1202 km, 28.2° (Epoch: 19 November)

Date Brightness Start Highest point End Pass type
(mag) Time Alt. Az. Time Alt. Az. Time Alt. Az.
23 Nov - 16:01:59 10° S 16:02:33 10° S 16:03:07 10° S daylight
24 Nov - 15:01:35 10° S 15:02:02 10° S 15:02:28 10° S daylight
25 Nov - 15:52:25 10° SSW 15:53:28 10° S 15:54:30 10° S daylight
26 Nov - 14:51:04 10° SSW 14:52:56 11° S 14:54:46 10° SSE daylight
27 Nov - 13:50:26 10° SSW 13:52:22 11° S 13:54:16 10° SSE daylight
28 Nov - 12:50:30 10° S 12:51:47 11° S 12:53:03 10° SSE daylight
28 Nov - 14:41:44 10° SSW 14:43:49 11° S 14:45:51 10° SSE daylight
29 Nov - 13:40:35 10° SSW 13:43:14 12° S 13:45:49 10° SSE daylight
